Volver al catálogo

BREEZE-M DEB

LostHEO
NORAD 32489·DEBRIS·🇷🇺 Russia

Lanzado Feb 28, 2006 desde Baikonur Cosmodrome

Loading…

Próximos Pases (próximas 24 horas)

TLE

ObsoletoSource: Space-Track

Época: Nov 28, 2008, 15:22 UTC

1 32489U 06006AC  08333.64079042  .00005490  00000-0  16876+0 0  9992
2 32489  50.1223 116.8569 4569164 224.2940  87.6668  5.41280188 19744

Sigue BREEZE-M DEB en tiempo real con AllMySat

Download on the App Store